Showing default

KNACKSAT-2, 67683

Orbit data source: Space-Track

KNACKSAT-2, 67683 is a Thai payload satellite in LEO that was delivered to the ISS. Payload-class satellites include a variety of spacecraft equipped with specific instruments for various scientific and technological missions. These include communications satellites like Starlink; space stations such as the ISS; scientific satellites like the Hubble; Earth observation satellites from companies like Planet Labs, Umbra, and HawkEye 360; GPS; miniature CubeSats for education and research; and military/defense satellites.

Loading next visibility...
Identifier
67683, 1998-067XZ
Orbit
LEO
Country
Flag of THTH / THAI
Related business
Manufacturer
Kyutech
Mission
Operational spacecraft
Bus & Motor
CUBESAT 3U, Unknown motor
Mass
3 kg wet, 3 kg dry
Launch date (UTC)
1998-11-20 (28 years ago)
Launch vehicle
H3-24W
Launch site
Tyuratam Missile And Space Complex (TTMTR)
Object type
Payload
Rocket body
Debris
Shape & HBR
Unknown shape, 0.1 m
Radar Cross Section
Medium (>0.1 m² and <1 m²)

Expand to show TLE details & history
Last TLE update: 19 hours ago

TLE from 19 hours ago
0 KNACKSAT-2
1 67683U 98067XZ  26165.65979306  .00044887  00000-0  55154-3 0  9999
2 67683  51.6308 307.1872 0009408 204.1419 155.9135 15.59771864 19883
Epoch: 2026-06-14T15:50Z
TLE epoch observation values (Epoch: 2026-06-14T15:50:06.120Z)
Latitude
0.00005°
Longitude
166.70439°
Altitude
394.873 km
Speed
7.671 km/s
True Right ascension
20h 28m 44s
True Declination
0° 00' 00"
Sunlit
Object was in full shadow at epoch
Visualization orbit readout
Latitude
Unknown
Longitude
Unknown
Altitude
Unknown
Speed
Unknown
Apparent Right ascension
Unknown
Apparent Declination
Unknown
Sunlit
N/A
Visualization observer readout
Local Sidereal Time
21:33:43
Azimuth
Unknown
Elevation
Unknown
Doppler factor
Unknown
Orbital elements
Apogee altitude
395.195 km
Perigee altitude
382.462 km
Semi-major axis
6,766.965 km
Eccentricity
0.00094
Inclination
51.6308°
RAAN
307.1872°
Arg. of periapsis
204.1419°
True anomaly
155.95745°
Mean anomaly
155.9135°
Eccentric anomaly
155.93548°
Mean motion
3.89899 °/min
Orbital period
92.33 mins
BSTAR
0.00055154
Loading maneuver chart data...
Computing Atmospheric mass density...
Loading historical data...
Loading historical data...
Loading historical data...
Loading historical data...
Loading historical data...
Loading historical data...
Loading historical data...

Documentation

Showing up to 5 results
|